{"data":{"norad_id":60565,"intl_designator":"2024-149DB","name":"PTD-4 (LISA-T)","alt_names":[],"object_type":"PAYLOAD","status":"ACTIVE","operator":null,"country":"US","launch_date":"2024-08-16","launch_site_code":"AFWTR","launch_vehicle":null,"mission":null,"orbit_class":"UNKNOWN","rcs_meters":null,"size_class":null,"mass_kg":null,"dimensions":null,"purposes":[],"wikipedia_slug":null,"has_3d_model":false,"image_url":null,"decayed_at":null,"tle_current":{"epoch":"2026-09-21T23:50:45.090816Z","epoch_age_seconds":160035,"freshness":"FRESH","line1":"1 60565U 24149DB  26264.99357744  .00017223  00000+0  67834-3 0  9995","line2":"2 60565  97.6937 356.3854 0003231  76.2770 283.8827 15.25675955115563","mean_motion":15.25675955,"eccentricity":0.0003231,"inclination_deg":97.6937,"raan_deg":356.3854,"arg_perigee_deg":76.277,"mean_anomaly_deg":283.8827,"bstar":0.00067834,"rev_number":11556,"period_min":94.384393703052,"perigee_km":486.53772711617,"apogee_km":490.97511364442,"semimajor_km":6866.8934203803,"source":"CELESTRAK","updated_at":"2026-09-23T09:00:20.702324Z"}}}